ZIYUAN 3-1 (ZY 3-1)

Last updated on Sun Oct 19 2025 00:02:30 GMT+0000 (Coordinated Universal Time)

1 38046U 12001A 25291.31213802 .00066058 00000+0 80184-3 0 9992 2 38046 97.1861 356.7635 0003211 160.8645 199.2733 15.60389825766300
UTC large
Height (km)
Speed (km/s)
/
Latitude / Longitude
Inclination (degrees)
Orbital Period (minutes)
Azimuth
Elevation
Range (km)
Doppler Factor

Next 0 passes for location: London (51.5072 / 0.1276)

Sorry there are no passes over London.